Wind_Speed
21 21 21 20 21 21 21 21 20 20 20 19 19 19 19 19 19 18 17 17 18 18 18 19 19 19 19 19 19 19 19 19 18 19 19 19 18 18 17 18 18 18 20
21 22 21 21 21 21 21 21 20 20 19 20 19 19 19 19 18 17 17 17 17 18 18 19 20 20 19 19 19 18 18 18 18 18 18 18 18 18 18 18 19 19 20
21 22 22 22 22 22 21 21 20 20 19 19 19 18 18 18 18 17 16 17 17 17 17 18 18 19 18 18 18 17 17 17 17 18 18 18 18 19 20 20 20 21 22
21 22 22 22 22 21 21 20 20 20 19 20 19 19 18 18 17 17 16 16 16 15 16 16 16 17 17 17 17 16 16 17 17 18 18 19 19 20 21 21 21 21 21
21 22 21 20 21 21 20 20 20 20 20 20 19 19 19 19 18 17 16 15 15 15 15 15 15 15 16 16 16 16 16 17 17 18 18 18 19 20 21 21 21 22 22
22 21 20 20 20 20 20 20 20 20 20 19 19 18 18 18 18 17 15 14 15 14 15 16 16 15 15 15 15 15 15 16 16 17 18 19 19 20 20 21 21 22 22
21 21 21 20 20 20 20 20 20 20 20 19 19 18 17 17 17 16 15 13 14 14 15 15 15 15 15 15 15 14 15 16 17 18 18 19 19 19 20 20 20 21 21
22 21 21 20 20 20 20 20 20 20 20 19 19 18 17 17 17 15 14 13 14 14 15 14 14 15 15 15 14 15 16 16 16 16 17 17 18 18 19 19 20 21 21
22 22 21 20 19 19 19 20 20 20 19 19 18 17 16 16 15 14 14 13 14 13 13 13 13 13 14 14 14 15 15 15 15 16 16 16 16 16 18 19 20 21 21
22 22 21 20 19 19 19 19 19 19 19 18 17 16 15 15 14 13 13 13 13 12 12 12 12 12 13 13 14 14 14 15 15 15 16 16 16 18 19 20 20 21 21
22 21 20 19 19 18 18 19 19 19 18 17 18 17 16 15 14 13 13 12 13 13 12 12 11 11 12 13 14 14 14 15 16 16 17 17 17 18 19 19 20 21 21
22 21 20 20 19 19 19 19 18 18 17 17 17 17 17 16 14 13 13 13 13 13 14 14 13 12 13 13 14 15 15 15 15 16 17 17 18 18 18 19 19 20 20
23 21 21 20 20 20 20 20 19 19 18 18 17 17 16 16 14 14 14 14 14 14 15 14 14 14 14 15 15 15 15 15 15 16 17 17 18 19 19 19 20 21 21
23 23 22 22 21 21 21 20 20 20 19 19 18 17 17 16 15 15 14 14 14 14 14 15 16 15 15 15 15 16 16 16 16 16 17 17 18 19 20 20 21 21 21
24 23 23 23 23 22 21 20 19 19 20 20 19 18 18 16 16 15 16 16 16 16 16 17 17 16 15 16 16 16 16 17 17 17 18 18 19 20 20 21 21 21 21
23 23 23 22 22 22 20 19 19 19 19 19 19 19 19 19 18 18 18 17 17 17 18 18 18 17 17 17 17 17 18 18 18 19 19 19 20 20 21 21 21 21 22
22 22 22 21 21 21 20 19 19 18 17 18 18 19 19 20 19 19 18 19 18 18 18 19 18 19 19 19 19 19 19 19 19 19 20 20 21 21 21 21 21 21 22
21 21 21 21 20 20 21 20 20 19 18 18 18 18 19 19 19 19 19 19 19 20 20 20 20 20 20 19 20 20 19 19 19 20 20 21 22 22 23 22 22 22 22
21 22 22 22 21 20 20 21 20 20 19 18 18 18 18 18 19 19 19 19 19 20 20 20 20 20 20 20 20 20 20 20 21 21 21 22 23 23 23 23 23 23 24
20 20 21 22 22 21 21 21 20 20 19 18 18 19 19 19 19 19 20 20 20 21 21 20 20 20 20 21 21 21 22 22 22 23 23 24 24 24 23 23 24 24 25
21 21 21 22 22 22 21 20 20 20 20 19 19 19 20 20 20 20 20 20 20 20 21 21 22 22 22 22 22 22 23 23 24 25 25 25 24 24 24 25 25 26 27
21 21 22 22 22 21 21 21 21 22 22 21 21 21 21 21 21 20 20 21 21 20 21 21 22 22 23 23 24 24 24 25 25 25 25 25 25 25 26 26 27 28 28
22 22 21 22 22 22 22 22 22 22 22 22 21 21 22 22 22 22 21 21 21 21 21 21 22 22 22 23 23 24 24 25 25 25 25 25 25 26 26 27 28 28 28
21 21 22 21 22 23 24 23 23 22 22 22 22 22 22 21 22 22 21 21 21 21 22 22 23 23 23 22 23 23 24 24 24 25 25 25 26 27 27 28 29 29 29
20 20 20 20 20 21 22 22 22 22 22 22 22 22 21 21 21 22 21 21 22 22 22 23 23 23 23 23 23 23 24 25 26 26 26 26 27 28 29 29 28 28 29
20 20 21 21 21 21 22 22 22 22 23 23 23 23 22 22 23 23 23 22 22 22 23 23 23 23 22 23 24 24 25 25 25 25 26 26 27 27 28 28 28 28 28
Wind_Direction
284 285 285 285 287 292 295 297 299 303 306 308 306 300 298 295 290 285 278 274 270 268 265 263 263 263 265 266 267 268 270 272 273 274 277 277 278 281 279 280 279 280 279
285 285 285 285 287 289 292 293 295 299 302 305 307 302 297 296 293 289 280 272 270 267 266 265 264 262 264 265 266 268 270 271 272 274 277 278 280 279 281 281 281 280 282
287 285 284 285 287 289 289 290 292 294 297 302 307 303 298 294 291 289 282 273 273 270 266 266 263 261 263 264 266 268 271 271 272 274 275 278 281 281 281 282 283 283 284
286 285 284 284 284 285 286 286 289 291 293 298 302 303 299 296 292 287 281 274 273 270 268 267 264 263 262 264 267 269 271 272 274 276 277 280 280 281 282 281 281 283 285
285 285 284 283 282 282 283 285 286 289 293 297 300 301 301 298 296 291 279 272 270 269 267 265 264 262 260 263 266 269 271 273 273 275 278 281 281 281 281 281 282 281 283
282 283 284 283 283 282 282 283 284 287 292 296 298 299 300 301 300 295 281 272 267 266 266 264 262 262 260 263 265 270 272 274 273 274 277 280 280 280 280 281 283 283 284
280 281 283 283 282 281 281 281 282 286 290 293 296 298 299 302 301 295 285 274 269 266 264 264 261 259 260 262 262 267 273 276 278 280 281 282 280 280 280 282 284 287 287
279 281 281 281 280 279 279 279 282 284 288 291 293 295 296 296 296 292 288 278 272 268 265 260 260 260 262 262 262 266 271 275 279 281 283 283 282 283 284 285 287 288 288
278 281 280 278 277 277 277 278 279 282 285 289 292 293 296 295 293 290 285 280 277 276 271 266 263 263 262 262 263 266 271 276 279 284 287 288 288 289 288 288 289 290 289
276 280 278 275 274 275 276 277 279 280 283 286 290 291 293 293 291 287 283 280 277 276 274 272 268 268 268 267 268 272 276 280 283 286 288 289 288 289 290 289 290 293 293
275 276 275 274 273 273 274 276 280 281 282 283 286 288 291 291 286 283 280 277 274 275 276 278 277 274 270 268 268 271 276 280 285 286 287 287 287 288 288 288 289 292 294
272 273 272 272 271 272 273 275 278 280 281 281 283 286 288 288 284 280 279 278 275 273 274 276 274 273 273 273 271 273 277 281 285 288 289 288 288 290 290 289 289 292 294
269 271 270 270 270 272 273 274 275 276 278 280 281 282 284 284 286 283 279 278 276 273 273 275 275 276 277 278 278 278 279 282 285 289 292 293 293 292 292 292 292 294 294
267 269 268 267 268 269 269 270 272 274 277 278 278 278 279 280 281 279 275 274 274 273 272 273 275 279 280 280 278 279 281 285 287 290 292 294 296 296 295 295 295 295 296
264 267 267 268 266 266 267 268 271 272 273 273 272 272 274 274 276 277 275 273 273 274 273 272 275 279 282 281 280 280 282 286 289 290 293 294 295 295 295 296 296 296 296
263 264 265 267 267 265 265 267 269 270 271 271 271 271 273 273 273 274 273 271 272 272 272 274 277 279 282 283 283 282 283 285 288 291 293 294 295 295 295 296 295 295 296
263 262 263 265 266 265 263 265 269 269 270 273 272 272 273 272 271 271 272 272 273 272 273 276 278 280 282 283 282 283 284 285 287 290 292 293 293 294 295 295 296 296 296
264 263 262 264 266 266 265 264 267 269 269 271 272 274 274 273 270 269 270 271 272 272 274 277 280 281 281 280 281 283 285 286 288 290 292 293 294 294 295 295 295 294 295
268 267 264 264 265 265 265 264 265 268 269 270 273 274 275 275 272 269 268 271 273 274 276 279 279 278 278 280 282 284 285 286 289 291 293 294 295 294 293 293 294 294 295
268 268 267 266 265 266 265 265 265 267 269 270 271 272 273 274 273 270 268 270 272 274 277 278 279 278 278 280 281 283 285 287 289 291 293 294 294 292 291 292 293 294 295
267 267 270 268 267 266 263 263 264 265 266 268 269 271 273 273 273 272 270 269 270 272 274 276 277 277 278 279 281 283 285 287 288 290 291 293 292 291 291 292 293 293 295
267 269 271 270 268 265 262 261 262 263 264 266 269 271 271 271 272 272 272 272 270 272 275 277 276 277 279 281 283 284 286 288 290 290 290 290 290 290 291 291 293 295 295
268 271 272 269 267 264 263 262 262 263 264 265 268 270 271 272 271 271 273 274 275 275 277 279 279 279 280 282 284 285 287 289 289 289 291 290 290 292 291 292 294 295 296
268 269 270 269 268 267 265 262 261 261 263 265 268 270 270 269 270 271 272 273 274 274 276 278 280 281 284 285 286 287 287 288 290 291 291 291 292 293 294 295 295 295 296
272 272 271 269 268 268 266 263 260 260 263 266 266 267 268 268 268 270 271 272 273 273 275 278 281 282 283 284 286 289 289 289 290 291 291 291 291 292 293 295 296 297 296
274 273 272 270 268 269 269 266 263 263 264 264 263 264 267 269 270 270 271 273 274 276 278 280 282 282 282 283 286 288 290 292 292 292 293 292 292 292 294 295 296 296 296
Height
5817 5817 5817 5816 5815 5814 5813 5812 5810 5808 5806 5803 5801 5798 5796 5794 5792 5791 5790 5790 5790 5791 5791 5792 5793 5795 5796 5798 5799 5800 5801 5802 5803 5803 5803 5804 5805 5805 5805 5805 5805 5805 5805
5812 5812 5811 5811 5810 5809 5808 5807 5805 5804 5801 5799 5796 5794 5791 5789 5787 5786 5785 5785 5785 5785 5786 5787 5788 5790 5791 5792 5793 5794 5796 5797 5798 5798 5799 5799 5800 5800 5800 5800 5800 5800 5800
5807 5807 5806 5806 5805 5804 5803 5802 5801 5799 5797 5795 5792 5789 5787 5785 5783 5781 5780 5780 5780 5780 5781 5782 5783 5784 5786 5787 5788 5790 5790 5792 5793 5793 5794 5794 5794 5795 5795 5795 5795 5794 5794
5802 5801 5801 5800 5799 5799 5798 5797 5795 5794 5792 5790 5788 5785 5783 5780 5779 5777 5776 5775 5775 5775 5776 5777 5778 5780 5781 5783 5784 5785 5786 5787 5787 5788 5789 5789 5789 5789 5789 5790 5790 5789 5788
5797 5796 5795 5795 5794 5794 5793 5792 5791 5789 5787 5785 5783 5781 5778 5776 5774 5772 5771 5770 5771 5771 5772 5773 5774 5775 5777 5778 5780 5780 5781 5782 5782 5783 5784 5784 5784 5784 5784 5783 5784 5783 5782
5791 5790 5790 5789 5789 5788 5788 5787 5786 5784 5782 5780 5778 5776 5774 5771 5769 5767 5766 5766 5767 5768 5769 5769 5770 5771 5773 5774 5775 5776 5776 5777 5777 5778 5778 5778 5778 5778 5778 5777 5777 5777 5777
5786 5785 5785 5784 5783 5783 5782 5781 5780 5779 5778 5776 5774 5772 5770 5768 5766 5764 5763 5763 5763 5764 5765 5765 5766 5767 5768 5769 5770 5771 5772 5772 5772 5773 5773 5773 5773 5772 5772 5772 5771 5770 5769
5780 5780 5779 5779 5778 5777 5776 5776 5775 5774 5773 5771 5770 5768 5766 5765 5763 5761 5760 5760 5760 5761 5761 5761 5762 5763 5764 5765 5766 5767 5767 5767 5767 5767 5768 5767 5767 5766 5766 5766 5765 5764 5763
5774 5774 5773 5773 5772 5772 5771 5770 5770 5769 5768 5767 5765 5764 5762 5760 5759 5758 5757 5757 5757 5758 5758 5758 5759 5759 5760 5761 5762 5762 5763 5763 5763 5763 5763 5762 5762 5761 5761 5760 5760 5759 5758
5769 5768 5767 5767 5767 5766 5766 5765 5765 5764 5763 5762 5761 5760 5758 5757 5756 5755 5754 5754 5754 5755 5754 5755 5755 5756 5757 5757 5758 5758 5758 5758 5758 5758 5758 5758 5757 5756 5756 5755 5754 5753 5752
5763 5762 5762 5761 5761 5761 5761 5760 5759 5758 5758 5757 5756 5755 5754 5753 5752 5752 5751 5751 5751 5751 5751 5752 5752 5753 5753 5753 5754 5754 5754 5754 5754 5754 5754 5753 5753 5752 5751 5750 5749 5748 5747
5757 5756 5756 5756 5756 5755 5756 5755 5754 5753 5753 5752 5752 5751 5750 5749 5749 5748 5748 5748 5748 5748 5748 5748 5749 5749 5749 5749 5750 5750 5750 5750 5750 5750 5749 5749 5748 5747 5746 5745 5744 5742 5741
5750 5750 5750 5750 5750 5750 5750 5749 5749 5748 5748 5747 5747 5746 5746 5745 5745 5745 5744 5744 5744 5744 5744 5745 5745 5745 5745 5745 5746 5746 5746 5746 5746 5745 5745 5744 5743 5742 5741 5740 5738 5737 5735
5743 5744 5744 5744 5744 5744 5744 5743 5743 5743 5743 5742 5742 5742 5741 5741 5741 5741 5741 5740 5741 5740 5741 5741 5741 5741 5741 5741 5741 5742 5742 5742 5741 5741 5740 5739 5738 5737 5736 5735 5733 5731 5730
5736 5737 5737 5737 5737 5737 5737 5737 5737 5737 5737 5737 5737 5737 5737 5737 5737 5737 5736 5737 5737 5737 5737 5737 5737 5737 5737 5737 5737 5737 5737 5737 5736 5736 5735 5734 5733 5731 5730 5729 5727 5725 5724
5729 5729 5730 5730 5730 5730 5730 5731 5731 5731 5731 5731 5731 5731 5731 5732 5732 5732 5732 5732 5732 5732 5732 5733 5733 5733 5733 5732 5732 5732 5732 5732 5731 5730 5729 5728 5727 5725 5724 5722 5721 5719 5718
5722 5722 5722 5723 5723 5723 5724 5724 5725 5726 5726 5726 5725 5726 5726 5726 5726 5726 5727 5727 5727 5727 5727 5727 5728 5728 5728 5728 5727 5727 5727 5726 5726 5725 5724 5723 5721 5720 5718 5717 5715 5713 5711
5715 5715 5715 5716 5717 5717 5717 5718 5719 5719 5720 5720 5720 5720 5720 5720 5721 5721 5721 5721 5721 5721 5722 5722 5722 5723 5722 5722 5722 5722 5721 5721 5720 5719 5718 5717 5715 5714 5712 5710 5708 5707 5705
5709 5709 5709 5710 5711 5711 5712 5712 5712 5713 5714 5714 5714 5715 5715 5715 5714 5715 5715 5716 5716 5716 5716 5717 5717 5717 5717 5716 5716 5716 5715 5714 5714 5713 5711 5710 5709 5707 5705 5704 5702 5700 5698
5703 5703 5703 5703 5704 5705 5705 5706 5706 5707 5708 5708 5709 5709 5709 5709 5709 5709 5709 5710 5710 5711 5711 5711 5711 5711 5711 5710 5710 5709 5709 5708 5707 5706 5705 5703 5702 5700 5698 5696 5695 5693 5691
5697 5697 5697 5697 5698 5698 5699 5700 5701 5701 5702 5702 5703 5703 5703 5703 5704 5704 5704 5704 5704 5705 5705 5705 5705 5705 5705 5704 5703 5703 5702 5701 5700 5699 5698 5696 5694 5693 5691 5689 5688 5685 5683
5691 5691 5691 5691 5691 5692 5693 5694 5695 5695 5696 5696 5697 5697 5697 5697 5698 5698 5698 5698 5698 5699 5699 5699 5698 5698 5698 5697 5697 5696 5695 5694 5693 5691 5690 5688 5687 5685 5683 5681 5680 5677 5675
5684 5685 5685 5685 5684 5685 5686 5687 5688 5689 5689 5689 5690 5690 5691 5691 5692 5692 5692 5692 5692 5692 5692 5692 5692 5691 5691 5690 5689 5688 5687 5686 5685 5683 5682 5680 5679 5677 5675 5673 5671 5669 5666
5678 5678 5678 5678 5678 5679 5679 5680 5681 5682 5682 5683 5684 5684 5684 5685 5685 5686 5686 5686 5686 5686 5686 5686 5685 5684 5684 5683 5682 5681 5680 5678 5677 5676 5674 5672 5671 5669 5667 5665 5662 5660 5658
5672 5672 5672 5672 5672 5672 5672 5673 5674 5674 5675 5676 5677 5677 5678 5678 5679 5679 5679 5679 5679 5679 5679 5678 5678 5677 5676 5675 5674 5673 5672 5671 5669 5667 5666 5664 5662 5660 5658 5656 5654 5652 5649
5666 5666 5666 5666 5665 5666 5666 5666 5666 5667 5668 5669 5670 5670 5671 5671 5672 5672 5672 5672 5672 5672 5672 5671 5670 5669 5669 5668 5667 5666 5664 5663 5661 5659 5657 5655 5654 5652 5650 5647 5645 5643 5641